| time (UTC) | temp C | wind direction | speed KPH | gust KPH | rain 1hr cm | rain 24hr cm | rain mn cm | humidity % | barometer mb |
| 20260506092420 | 11 | 77 | 8.0 | 12.9 | 0.00 | 0.00 | 0.00 | 83 | 1011.1 |
| 20260506091916 | 11 | 38 | 6.4 | 9.7 | 0.00 | 0.00 | 0.00 | 83 | 1010.8 |
| 20260506091414 | 11 | 18 | 4.8 | 4.8 | 0.00 | 0.00 | 0.00 | 84 | 1010.4 |
| 20260506090911 | 11 | 21 | 9.7 | 12.9 | 0.00 | 0.00 | 0.00 | 83 | 1010.7 |
| 20260506090409 | 11 | 348 | 6.4 | 9.7 | 0.00 | 0.00 | 0.00 | 83 | 1010.8 |
| 20260506085905 | 11 | 27 | 8.0 | 11.3 | 0.00 | 0.00 | 0.00 | 83 | 1010.7 |
| 20260506085402 | 11 | 58 | 6.4 | 9.7 | 0.00 | 0.00 | 0.00 | 83 | 1010.6 |
| 20260506084858 | 11 | 20 | 3.2 | 4.8 | 0.00 | 0.00 | 0.00 | 83 | 1010.6 |
| 20260506084355 | 12 | 89 | 0.0 | 1.6 | 0.00 | 0.00 | 0.00 | 84 | 1010.7 |
| 20260506083852 | 12 | 48 | 4.8 | 8.0 | 0.00 | 0.00 | 0.00 | 83 | 1010.6 |
| 20260506083349 | 12 | 0 | 6.4 | 9.7 | 0.00 | 0.00 | 0.00 | 83 | 1010.8 |
| 20260506082846 | 12 | 11 | 4.8 | 8.0 | 0.00 | 0.00 | 0.00 | 83 | 1010.4 |
| 20260506082343 | 12 | 333 | 9.7 | 12.9 | 0.00 | 0.00 | 0.00 | 83 | 1010.7 |
| 20260506081839 | 12 | 1 | 8.0 | 11.3 | 0.00 | 0.00 | 0.00 | 84 | 1010.5 |
| 20260506081338 | 12 | 358 | 9.7 | 11.3 | 0.00 | 0.00 | 0.00 | 84 | 1010.5 |
| 20260506080835 | 12 | 29 | 4.8 | 4.8 | 0.00 | 0.00 | 0.00 | 85 | 1010.3 |
| 20260506080331 | 12 | 23 | 1.6 | 3.2 | 0.00 | 0.00 | 0.00 | 85 | 1010.3 |
| 20260506073315 | 12 | 339 | 6.4 | 11.3 | 0.00 | 0.00 | 0.00 | 84 | 1010.5 |
| 20260506072812 | 12 | 324 | 4.8 | 8.0 | 0.00 | 0.00 | 0.00 | 85 | 1010.4 |
| 20260506072310 | 12 | 330 | 9.7 | 14.5 | 0.00 | 0.00 | 0.00 | 84 | 1010.3 |
| 20260506071807 | 12 | 356 | 4.8 | 4.8 | 0.00 | 0.00 | 0.00 | 85 | 1010.6 |
| 20260506071305 | 12 | 341 | 8.0 | 9.7 | 0.00 | 0.00 | 0.00 | 84 | 1010.3 |
| 20260506070802 | 12 | 332 | 4.8 | 4.8 | 0.00 | 0.00 | 0.00 | 84 | 1010.7 |
| 20260506070259 | 12 | 336 | 1.6 | 3.2 | 0.00 | 0.00 | 0.00 | 84 | 1010.6 |
| 20260506062236 | 13 | 0 | 4.8 | 12.9 | 0.00 | 0.00 | 0.00 | 85 | 1010.5 |
| 20260506061732 | 12 | 44 | 3.2 | 4.8 | 0.00 | 0.00 | 0.00 | 85 | 1010.3 |
| 20260506061230 | 12 | 12 | 9.7 | 11.3 | 0.00 | 0.00 | 0.00 | 86 | 1010.1 |
| 20260506060728 | 12 | 8 | 1.6 | 3.2 | 0.00 | 0.00 | 0.00 | 85 | 1009.8 |
| 20260506060224 | 12 | 75 | 0.0 | 0.0 | 0.00 | 0.00 | 0.00 | 85 | 1009.3 |
| 20260506051156 | 13 | 75 | 0.0 | 1.6 | 0.00 | 0.00 | 0.00 | 82 | 1009.6 |
| 20260506050655 | 13 | 49 | 6.4 | 12.9 | 0.00 | 0.00 | 0.00 | 81 | 1009.5 |
| 20260506050151 | 13 | 69 | 4.8 | 4.8 | 0.00 | 0.00 | 0.00 | 81 | 1009.9 |
| 20260506044643 | 13 | 32 | 4.8 | 4.8 | 0.00 | 0.00 | 0.00 | 82 | 1010.3 |
| 20260506044139 | 13 | 80 | 1.6 | 3.2 | 0.00 | 0.00 | 0.00 | 82 | 1010.1 |
| 20260506043636 | 13 | 87 | 1.6 | 1.6 | 0.00 | 0.00 | 0.00 | 82 | 1010.2 |
| 20260506043134 | 13 | 57 | 3.2 | 3.2 | 0.00 | 0.00 | 0.00 | 82 | 1010.1 |
| 20260506042633 | 13 | 25 | 1.6 | 3.2 | 0.00 | 0.00 | 0.00 | 82 | 1010.1 |
| 20260506042131 | 13 | 20 | 4.8 | 4.8 | 0.00 | 0.00 | 0.00 | 81 | 1010.1 |
| 20260506041629 | 13 | 75 | 4.8 | 8.0 | 0.00 | 0.00 | 0.00 | 81 | 1010.1 |
| 20260506041125 | 14 | 89 | 4.8 | 9.7 | 0.00 | 0.00 | 0.00 | 80 | 1010.0 |
| 20260506040623 | 14 | 51 | 4.8 | 9.7 | 0.00 | 0.00 | 0.00 | 80 | 1010.0 |
| 20260506040120 | 14 | 91 | 9.7 | 12.9 | 0.00 | 0.00 | 0.00 | 81 | 1010.3 |
| 20260506035617 | 14 | 69 | 0.0 | 1.6 | 0.00 | 0.00 | 0.00 | 81 | 1010.1 |
| 20260506035113 | 14 | 67 | 6.4 | 8.0 | 0.00 | 0.00 | 0.00 | 81 | 1010.0 |
| 20260506034611 | 14 | 54 | 4.8 | 8.0 | 0.00 | 0.00 | 0.00 | 81 | 1009.9 |
| 20260506034108 | 14 | 70 | 0.0 | 1.6 | 0.00 | 0.00 | 0.00 | 81 | 1009.6 |
| 20260506033605 | 14 | 42 | 8.0 | 11.3 | 0.00 | 0.00 | 0.00 | 80 | 1009.8 |
| 20260506033101 | 15 | 5 | 11.3 | 14.5 | 0.00 | 0.00 | 0.00 | 80 | 1009.8 |
| 20260506032559 | 15 | 5 | 3.2 | 9.7 | 0.00 | 0.00 | 0.00 | 80 | 1009.9 |
| 20260506032056 | 15 | 14 | 4.8 | 4.8 | 0.00 | 0.00 | 0.00 | 80 | 1009.9 |
| 20260506031553 | 15 | 31 | 8.0 | 12.9 | 0.00 | 0.00 | 0.00 | 80 | 1009.6 |
| 20260506031050 | 15 | 5 | 3.2 | 8.0 | 0.00 | 0.00 | 0.00 | 79 | 1009.4 |
| 20260506030548 | 15 | 1 | 4.8 | 4.8 | 0.00 | 0.00 | 0.00 | 79 | 1009.4 |
| 20260506030045 | 15 | 65 | 0.0 | 0.0 | 0.00 | 0.00 | 0.00 | 79 | 1009.6 |
| 20260506025542 | 15 | 99 | 1.6 | 3.2 | 0.00 | 0.00 | 0.00 | 78 | 1009.3 |
| 20260506025038 | 16 | 74 | 3.2 | 4.8 | 0.00 | 0.00 | 0.00 | 77 | 1009.3 |
| 20260506024535 | 16 | 15 | 0.0 | 0.0 | 0.00 | 0.00 | 0.00 | 78 | 1009.0 |
| 20260506024031 | 16 | 329 | 8.0 | 12.9 | 0.00 | 0.00 | 0.00 | 78 | 1008.4 |
| 20260506023528 | 16 | 6 | 1.6 | 1.6 | 0.00 | 0.00 | 0.00 | 77 | 1008.7 |
| 20260506023026 | 16 | 327 | 0.0 | 1.6 | 0.00 | 0.00 | 0.00 | 76 | 1008.4 |
| 20260506022523 | 16 | 25 | 4.8 | 12.9 | 0.00 | 0.00 | 0.00 | 76 | 1008.4 |
| 20260506022020 | 17 | 51 | 3.2 | 9.7 | 0.00 | 0.00 | 0.00 | 76 | 1008.3 |
| 20260506021518 | 17 | 73 | 4.8 | 11.3 | 0.00 | 0.00 | 0.00 | 76 | 1008.2 |
| 20260506021015 | 17 | 322 | 11.3 | 20.9 | 0.00 | 0.00 | 0.00 | 75 | 1008.4 |
| 20260506020512 | 18 | 68 | 0.0 | 1.6 | 0.00 | 0.00 | 0.00 | 74 | 1007.8 |
| 20260506020010 | 18 | 34 | 9.7 | 12.9 | 0.00 | 0.00 | 0.00 | 74 | 1007.7 |
| 20260506015507 | 18 | 70 | 9.7 | 14.5 | 0.00 | 0.00 | 0.00 | 73 | 1007.4 |
| 20260506015003 | 19 | 335 | 0.0 | 1.6 | 0.00 | 0.00 | 0.00 | 72 | 1007.1 |
| 20260506014501 | 19 | 49 | 0.0 | 0.0 | 0.00 | 0.00 | 0.00 | 71 | 1006.9 |
| 20260506013957 | 19 | 41 | 1.6 | 4.8 | 0.00 | 0.00 | 0.00 | 70 | 1006.8 |
| 20260506013455 | 20 | 48 | 0.0 | 1.6 | 0.00 | 0.00 | 0.00 | 70 | 1006.5 |
| 20260506012950 | 20 | 101 | 0.0 | 0.0 | 0.00 | 0.00 | 0.00 | 70 | 1006.4 |
| 20260506012447 | 20 | 41 | 0.0 | 0.0 | 0.00 | 0.00 | 0.00 | 69 | 1006.6 |
| 20260506011944 | 20 | 55 | 0.0 | 0.0 | 0.00 | 0.00 | 0.00 | 68 | 1006.7 |
| 20260506011442 | 21 | 25 | 0.0 | 0.0 | 0.00 | 0.00 | 0.00 | 67 | 1006.5 |
| 20260506010938 | 21 | 353 | 0.0 | 0.0 | 0.00 | 0.00 | 0.00 | 66 | 1006.4 |
| 20260506010437 | 21 | 340 | 0.0 | 0.0 | 0.00 | 0.00 | 0.00 | 65 | 1006.6 |
| 20260506005933 | 21 | 49 | 0.0 | 0.0 | 0.00 | 0.00 | 0.00 | 65 | 1006.6 |
| 20260506005431 | 21 | 14 | 0.0 | 0.0 | 0.00 | 0.00 | 0.00 | 64 | 1006.1 |
| 20260506004926 | 21 | 30 | 0.0 | 0.0 | 0.00 | 0.00 | 0.00 | 63 | 1006.0 |
| 20260506004424 | 22 | 8 | 1.6 | 3.2 | 0.00 | 0.00 | 0.00 | 63 | 1006.1 |
| 20260506003920 | 21 | 64 | 0.0 | 0.0 | 0.00 | 0.00 | 0.00 | 63 | 1006.0 |
| 20260506003417 | 22 | 20 | 4.8 | 16.1 | 0.00 | 0.00 | 0.00 | 63 | 1005.8 |
| 20260506002913 | 22 | 34 | 1.6 | 3.2 | 0.00 | 0.00 | 0.00 | 62 | 1005.7 |
| 20260506002409 | 21 | 48 | 1.6 | 3.2 | 0.00 | 0.00 | 0.00 | 61 | 1005.7 |
| 20260506001905 | 21 | 2 | 3.2 | 8.0 | 0.00 | 0.00 | 0.00 | 62 | 1005.5 |
| 20260506001402 | 22 | 56 | 14.5 | 17.7 | 0.00 | 0.00 | 0.00 | 63 | 1005.3 |
| 20260506000859 | 22 | 330 | 1.6 | 4.8 | 0.00 | 0.00 | 0.00 | 63 | 1005.3 |
| 20260506000357 | 22 | 40 | 0.0 | 0.0 | 0.00 | 0.00 | 0.00 | 62 | 1005.5 |
| 20260505235853 | 22 | 18 | 0.0 | 1.6 | 0.00 | 0.00 | 0.00 | 61 | 1005.9 |
| 20260505235351 | 22 | 35 | 9.7 | 14.5 | 0.00 | 0.00 | 0.00 | 61 | 1005.6 |
| 20260505234848 | 22 | 42 | 1.6 | 3.2 | 0.00 | 0.00 | 0.00 | 62 | 1005.6 |
| 20260505234346 | 22 | 354 | 0.0 | 0.0 | 0.00 | 0.00 | 0.00 | 62 | 1005.9 |
| 20260505233842 | 22 | 19 | 1.6 | 4.8 | 0.00 | 0.00 | 0.00 | 62 | 1005.7 |
| 20260505233340 | 23 | 36 | 0.0 | 0.0 | 0.00 | 0.00 | 0.00 | 61 | 1005.9 |
| 20260505232837 | 23 | 351 | 11.3 | 14.5 | 0.00 | 0.00 | 0.00 | 60 | 1005.8 |
| 20260505232335 | 23 | 13 | 4.8 | 11.3 | 0.00 | 0.00 | 0.00 | 61 | 1005.8 |
| 20260505231831 | 23 | 42 | 1.6 | 4.8 | 0.00 | 0.00 | 0.00 | 63 | 1005.6 |
| 20260505231329 | 23 | 10 | 0.0 | 0.0 | 0.00 | 0.00 | 0.00 | 62 | 1005.8 |
| 20260505230827 | 23 | 45 | 6.4 | 9.7 | 0.00 | 0.00 | 0.00 | 62 | 1005.8 |
| 20260505230324 | 23 | 335 | 3.2 | 8.0 | 0.00 | 0.00 | 0.00 | 61 | 1005.4 |
| 20260505225821 | 24 | 15 | 0.0 | 1.6 | 0.00 | 0.00 | 0.00 | 62 | 1005.2 |
| 20260505225319 | 24 | 359 | 0.0 | 0.0 | 0.00 | 0.00 | 0.00 | 62 | 1005.1 |
| 20260505224819 | 24 | 359 | 4.8 | 8.0 | 0.00 | 0.00 | 0.00 | 63 | 1004.9 |
| 20260505224317 | 25 | 35 | 1.6 | 4.8 | 0.00 | 0.00 | 0.00 | 58 | 1005.1 |
| 20260505223814 | 25 | 62 | 6.4 | 9.7 | 0.00 | 0.00 | 0.00 | 59 | 1004.9 |
| 20260505223311 | 25 | 69 | 8.0 | 12.9 | 0.00 | 0.00 | 0.00 | 60 | 1004.8 |
| 20260505222806 | 25 | 29 | 4.8 | 8.0 | 0.00 | 0.00 | 0.00 | 60 | 1004.9 |
| 20260505222305 | 25 | 338 | 8.0 | 9.7 | 0.00 | 0.00 | 0.00 | 62 | 1004.9 |
| 20260505221800 | 25 | 11 | 8.0 | 12.9 | 0.00 | 0.00 | 0.00 | 60 | 1004.9 |
| 20260505221257 | 25 | 2 | 8.0 | 12.9 | 0.00 | 0.00 | 0.00 | 61 | 1004.5 |
| 20260505220754 | 25 | 9 | 9.7 | 14.5 | 0.00 | 0.00 | 0.00 | 60 | 1004.9 |
| 20260505220251 | 25 | 319 | 11.3 | 12.9 | 0.00 | 0.00 | 0.00 | 60 | 1004.9 |
| 20260505215749 | 25 | 308 | 12.9 | 16.1 | 0.00 | 0.00 | 0.00 | 60 | 1004.9 |
| 20260505215246 | 25 | 16 | 11.3 | 16.1 | 0.00 | 0.00 | 0.00 | 59 | 1004.9 |
| 20260505214744 | 26 | 6 | 9.7 | 11.3 | 0.00 | 0.00 | 0.00 | 59 | 1004.9 |
| 20260505214241 | 26 | 320 | 14.5 | 20.9 | 0.00 | 0.00 | 0.00 | 59 | 1004.9 |
| 20260505213738 | 26 | 72 | 4.8 | 9.7 | 0.00 | 0.00 | 0.00 | 59 | 1004.9 |
| 20260505213236 | 27 | 24 | 4.8 | 8.0 | 0.00 | 0.00 | 0.00 | 57 | 1004.8 |
| 20260505212731 | 28 | 28 | 8.0 | 11.3 | 0.00 | 0.00 | 0.00 | 55 | 1004.6 |
| 20260505212229 | 28 | 15 | 12.9 | 14.5 | 0.00 | 0.00 | 0.00 | 55 | 1004.6 |
| 20260505211726 | 28 | 1 | 11.3 | 14.5 | 0.00 | 0.00 | 0.00 | 55 | 1004.4 |
| 20260505211223 | 28 | 12 | 8.0 | 11.3 | 0.00 | 0.00 | 0.00 | 56 | 1004.5 |
| 20260505210719 | 28 | 348 | 12.9 | 16.1 | 0.00 | 0.00 | 0.00 | 55 | 1004.5 |
| 20260505210216 | 29 | 21 | 6.4 | 9.7 | 0.00 | 0.00 | 0.00 | 53 | 1004.6 |
| 20260505205714 | 28 | 38 | 4.8 | 9.7 | 0.00 | 0.00 | 0.00 | 55 | 1004.5 |
| 20260505205212 | 28 | 5 | 8.0 | 14.5 | 0.00 | 0.00 | 0.00 | 55 | 1004.8 |
| 20260505204708 | 30 | 346 | 8.0 | 14.5 | 0.00 | 0.00 | 0.00 | 53 | 1004.6 |
| 20260505204206 | 30 | 21 | 6.4 | 9.7 | 0.00 | 0.00 | 0.00 | 52 | 1004.6 |
| 20260505203703 | 30 | 354 | 8.0 | 9.7 | 0.00 | 0.00 | 0.00 | 50 | 1004.4 |
| 20260505203200 | 30 | 27 | 11.3 | 14.5 | 0.00 | 0.00 | 0.00 | 46 | 1004.7 |
| 20260505202655 | 30 | 274 | 4.8 | 8.0 | 0.00 | 0.00 | 0.00 | 48 | 1004.5 |
| 20260505202152 | 30 | 287 | 9.7 | 12.9 | 0.00 | 0.00 | 0.00 | 47 | 1004.7 |
| 20260505201648 | 30 | 6 | 4.8 | 8.0 | 0.00 | 0.00 | 0.00 | 45 | 1005.0 |
| 20260505201146 | 30 | 1 | 8.0 | 9.7 | 0.00 | 0.00 | 0.00 | 46 | 1004.8 |
| 20260505200644 | 30 | 290 | 4.8 | 11.3 | 0.00 | 0.00 | 0.00 | 46 | 1004.8 |
| 20260505200141 | 29 | 345 | 8.0 | 14.5 | 0.00 | 0.00 | 0.00 | 45 | 1005.0 |
| 20260505195637 | 30 | 287 | 11.3 | 14.5 | 0.00 | 0.00 | 0.00 | 46 | 1004.9 |
| 20260505195134 | 29 | 29 | 8.0 | 12.9 | 0.00 | 0.00 | 0.00 | 42 | 1004.9 |
| 20260505194631 | 29 | 339 | 11.3 | 12.9 | 0.00 | 0.00 | 0.00 | 41 | 1005.0 |
| 20260505194127 | 29 | 285 | 17.7 | 20.9 | 0.00 | 0.00 | 0.00 | 41 | 1005.0 |
| 20260505193624 | 28 | 353 | 8.0 | 9.7 | 0.00 | 0.00 | 0.00 | 43 | 1005.0 |
| 20260505193121 | 28 | 349 | 9.7 | 16.1 | 0.00 | 0.00 | 0.00 | 42 | 1005.1 |
| 20260505192620 | 28 | 339 | 16.1 | 16.1 | 0.00 | 0.00 | 0.00 | 43 | 1005.0 |
| 20260505192117 | 28 | 330 | 11.3 | 14.5 | 0.00 | 0.00 | 0.00 | 41 | 1005.0 |
| 20260505191615 | 28 | 32 | 12.9 | 16.1 | 0.00 | 0.00 | 0.00 | 40 | 1005.0 |
| 20260505191113 | 30 | 266 | 8.0 | 9.7 | 0.00 | 0.00 | 0.00 | 50 | 1004.7 |
| 20260505190608 | 30 | 244 | 8.0 | 8.0 | 0.00 | 0.00 | 0.00 | 49 | 1004.5 |
| 20260505190104 | 30 | 275 | 4.8 | 9.7 | 0.00 | 0.00 | 0.00 | 48 | 1004.5 |
| 20260505185600 | 30 | 281 | 12.9 | 16.1 | 0.00 | 0.00 | 0.00 | 50 | 1004.7 |
| 20260505185057 | 30 | 251 | 4.8 | 4.8 | 0.00 | 0.00 | 0.00 | 57 | 1004.8 |
| 20260505184554 | 30 | 209 | 14.5 | 14.5 | 0.00 | 0.00 | 0.00 | 55 | 1004.4 |
| 20260505184050 | 30 | 232 | 14.5 | 16.1 | 0.00 | 0.00 | 0.00 | 56 | 1004.9 |
| 20260505183547 | 30 | 231 | 9.7 | 9.7 | 0.00 | 0.00 | 0.00 | 54 | 1004.8 |
| 20260505183045 | 30 | 218 | 20.9 | 22.5 | 0.00 | 0.00 | 0.00 | 54 | 1004.9 |
| 20260505182541 | 30 | 225 | 17.7 | 20.9 | 0.00 | 0.00 | 0.00 | 55 | 1004.8 |
| 20260505182038 | 30 | 225 | 11.3 | 14.5 | 0.00 | 0.00 | 0.00 | 58 | 1004.8 |
| 20260505181534 | 29 | 231 | 12.9 | 14.5 | 0.00 | 0.00 | 0.00 | 59 | 1004.7 |
| 20260505181033 | 30 | 224 | 19.3 | 22.5 | 0.00 | 0.00 | 0.00 | 56 | 1004.6 |
| 20260505180528 | 29 | 229 | 14.5 | 14.5 | 0.00 | 0.00 | 0.00 | 58 | 1004.7 |
| 20260505180027 | 28 | 239 | 19.3 | 22.5 | 0.00 | 0.00 | 0.00 | 57 | 1004.7 |
| 20260505175526 | 28 | 225 | 17.7 | 17.7 | 0.00 | 0.00 | 0.00 | 58 | 1004.7 |
| 20260505175023 | 28 | 224 | 16.1 | 17.7 | 0.00 | 0.00 | 0.00 | 60 | 1004.9 |
| 20260505174520 | 28 | 228 | 14.5 | 16.1 | 0.00 | 0.00 | 0.00 | 58 | 1004.7 |
| 20260505174016 | 28 | 226 | 9.7 | 12.9 | 0.00 | 0.00 | 0.00 | 60 | 1004.9 |
| 20260505173513 | 28 | 214 | 16.1 | 17.7 | 0.00 | 0.00 | 0.00 | 59 | 1004.8 |
| 20260505173010 | 28 | 220 | 14.5 | 16.1 | 0.00 | 0.00 | 0.00 | 62 | 1004.9 |
| 20260505172508 | 28 | 230 | 11.3 | 12.9 | 0.00 | 0.00 | 0.00 | 62 | 1004.9 |
| 20260505172009 | 28 | 209 | 16.1 | 17.7 | 0.00 | 0.00 | 0.00 | 61 | 1004.6 |
| 20260505171505 | 28 | 222 | 16.1 | 17.7 | 0.00 | 0.00 | 0.00 | 59 | 1004.9 |
| 20260505171001 | 28 | 225 | 19.3 | 22.5 | 0.00 | 0.00 | 0.00 | 59 | 1004.9 |
| 20260505170458 | 28 | 220 | 14.5 | 14.5 | 0.00 | 0.00 | 0.00 | 59 | 1004.7 |
| 20260505165954 | 28 | 233 | 16.1 | 17.7 | 0.00 | 0.00 | 0.00 | 60 | 1004.6 |
| 20260505165450 | 28 | 239 | 6.4 | 9.7 | 0.00 | 0.00 | 0.00 | 59 | 1004.6 |
| 20260505164945 | 28 | 235 | 14.5 | 16.1 | 0.00 | 0.00 | 0.00 | 58 | 1004.4 |
| 20260505164442 | 28 | 245 | 17.7 | 22.5 | 0.00 | 0.00 | 0.00 | 59 | 1004.6 |
| 20260505163940 | 28 | 218 | 14.5 | 14.5 | 0.00 | 0.00 | 0.00 | 59 | 1004.5 |
| 20260505163439 | 28 | 219 | 17.7 | 20.9 | 0.00 | 0.00 | 0.00 | 59 | 1004.3 |
| 20260505162937 | 28 | 229 | 17.7 | 17.7 | 0.00 | 0.00 | 0.00 | 61 | 1004.5 |
| 20260505162433 | 27 | 230 | 16.1 | 17.7 | 0.00 | 0.00 | 0.00 | 61 | 1004.1 |
| 20260505161930 | 27 | 252 | 14.5 | 17.7 | 0.00 | 0.00 | 0.00 | 62 | 1004.3 |
| 20260505161426 | 27 | 229 | 11.3 | 12.9 | 0.00 | 0.00 | 0.00 | 64 | 1004.6 |
| 20260505160924 | 27 | 237 | 11.3 | 14.5 | 0.00 | 0.00 | 0.00 | 63 | 1004.6 |
| 20260505160422 | 27 | 222 | 12.9 | 12.9 | 0.00 | 0.00 | 0.00 | 63 | 1004.6 |
| 20260505152858 | 26 | 226 | 11.3 | 11.3 | 0.00 | 0.00 | 0.00 | 69 | 1003.8 |
| 20260505152356 | 26 | 226 | 11.3 | 12.9 | 0.00 | 0.00 | 0.00 | 69 | 1003.9 |
| 20260505151855 | 26 | 217 | 9.7 | 11.3 | 0.00 | 0.00 | 0.00 | 71 | 1004.1 |
| 20260505151352 | 25 | 207 | 12.9 | 14.5 | 0.00 | 0.00 | 0.00 | 70 | 1004.1 |
| 20260505150849 | 25 | 222 | 14.5 | 16.1 | 0.00 | 0.00 | 0.00 | 71 | 1004.1 |
| 20260505150347 | 25 | 222 | 9.7 | 9.7 | 0.00 | 0.00 | 0.00 | 72 | 1004.2 |
| 20260505140317 | 23 | 219 | 11.3 | 12.9 | 0.00 | 0.00 | 0.00 | 78 | 1003.5 |
| 20260505130240 | 22 | 231 | 19.3 | 22.5 | 0.00 | 0.00 | 0.00 | 80 | 1003.1 |
| 20260505124731 | 22 | 209 | 16.1 | 16.1 | 0.00 | 0.00 | 0.00 | 81 | 1003.1 |
| 20260505124228 | 22 | 219 | 16.1 | 20.9 | 0.00 | 0.00 | 0.00 | 80 | 1003.0 |
| 20260505123723 | 22 | 218 | 14.5 | 17.7 | 0.00 | 0.00 | 0.00 | 80 | 1003.0 |
| 20260505123220 | 22 | 215 | 14.5 | 14.5 | 0.00 | 0.00 | 0.00 | 81 | 1003.0 |
| 20260505122717 | 21 | 223 | 22.5 | 25.7 | 0.00 | 0.00 | 0.00 | 81 | 1003.0 |
| 20260505122214 | 21 | 228 | 20.9 | 24.1 | 0.00 | 0.00 | 0.00 | 81 | 1002.8 |
| 20260505121710 | 21 | 223 | 14.5 | 17.7 | 0.00 | 0.00 | 0.00 | 81 | 1003.0 |
| 20260505121207 | 22 | 219 | 17.7 | 24.1 | 0.00 | 0.00 | 0.00 | 80 | 1003.0 |
| 20260505120703 | 21 | 201 | 22.5 | 27.4 | 0.00 | 0.00 | 0.00 | 80 | 1002.6 |
| 20260505120159 | 21 | 215 | 12.9 | 14.5 | 0.00 | 0.00 | 0.00 | 81 | 1002.6 |
| 20260505115653 | 21 | 218 | 16.1 | 17.7 | 0.00 | 0.00 | 0.00 | 81 | 1002.7 |
| 20260505115151 | 22 | 214 | 17.7 | 20.9 | 0.00 | 0.00 | 0.00 | 80 | 1002.7 |
| 20260505114648 | 22 | 224 | 20.9 | 24.1 | 0.00 | 0.00 | 0.00 | 80 | 1002.5 |
| 20260505114144 | 22 | 213 | 16.1 | 22.5 | 0.00 | 0.00 | 0.00 | 80 | 1002.4 |
| 20260505113641 | 22 | 205 | 20.9 | 25.7 | 0.00 | 0.00 | 0.00 | 80 | 1002.3 |
| 20260505113137 | 22 | 221 | 19.3 | 27.4 | 0.00 | 0.00 | 0.00 | 79 | 1002.5 |
| 20260505112633 | 22 | 217 | 20.9 | 25.7 | 0.00 | 0.00 | 0.00 | 79 | 1002.2 |
| 20260505112132 | 22 | 221 | 19.3 | 22.5 | 0.00 | 0.00 | 0.00 | 80 | 1002.4 |
| 20260505111625 | 22 | 225 | 19.3 | 22.5 | 0.00 | 0.00 | 0.00 | 79 | 1002.3 |
| 20260505111121 | 22 | 223 | 20.9 | 22.5 | 0.00 | 0.00 | 0.00 | 79 | 1002.4 |
| 20260505110618 | 22 | 208 | 20.9 | 27.4 | 0.00 | 0.00 | 0.00 | 78 | 1002.2 |
| 20260505110115 | 22 | 209 | 25.7 | 32.2 | 0.00 | 0.00 | 0.00 | 78 | 1002.2 |
| 20260505102051 | 22 | 205 | 24.1 | 29.0 | 0.00 | 0.00 | 0.00 | 78 | 1002.3 |
| 20260505101549 | 22 | 226 | 20.9 | 24.1 | 0.00 | 0.00 | 0.00 | 79 | 1002.4 |
| 20260505101045 | 22 | 235 | 29.0 | 33.8 | 0.00 | 0.00 | 0.00 | 78 | 1002.3 |
| 20260505100542 | 22 | 215 | 16.1 | 20.9 | 0.00 | 0.00 | 0.00 | 79 | 1002.4 |
| 20260505100039 | 22 | 218 | 17.7 | 20.9 | 0.00 | 0.00 | 0.00 | 78 | 1002.3 |
| 20260505095535 | 22 | 211 | 14.5 | 16.1 | 0.00 | 0.00 | 0.00 | 78 | 1002.2 |
| 20260505095031 | 22 | 222 | 17.7 | 22.5 | 0.00 | 0.00 | 0.00 | 79 | 1002.3 |
| 20260505094528 | 22 | 216 | 16.1 | 20.9 | 0.00 | 0.00 | 0.00 | 79 | 1002.4 |
| 20260505094024 | 22 | 223 | 16.1 | 17.7 | 0.00 | 0.00 | 0.00 | 79 | 1002.1 |
| 20260505093521 | 22 | 217 | 17.7 | 22.5 | 0.00 | 0.00 | 0.00 | 79 | 1002.4 |
| 20260505093018 | 22 | 226 | 16.1 | 17.7 | 0.00 | 0.00 | 0.00 | 79 | 1002.4 |